• In Uzbekistan
  • List of Countries
  • For 7 days
  • Water Temperature
  • Satellite Maps
  • Weather Map
  • Weather Widgets
  • user-avatar
    Login

    Hourly Weather Sianki

    Today, 17 July, Tuesday

    Time Temperature Precipitation Wind Pressure Humidity
    00:00 +12°C° 0 mm 1 mps 682 mmHg 95%
    01:00 +11°C° 0 mm 1 mps 682 mmHg 95%
    02:00 +11°C° 0 mm 1 mps 682 mmHg 96%
    03:00 +11°C° 0.1 mm 1 mps 681 mmHg 96%
    04:00 +11°C° 0.1 mm 1 mps 681 mmHg 96%
    05:00 +11°C° 0.1 mm 1 mps 681 mmHg 97%
    06:00 +12°C° 0 mm 1 mps 681 mmHg 95%
    07:00 +13°C° 0 mm 1 mps 682 mmHg 93%
    08:00 +15°C° 0 mm 1 mps 682 mmHg 91%
    09:00 +16°C° 0.4 mm 2 mps 682 mmHg 89%
    10:00 +17°C° 0.4 mm 2 mps 682 mmHg 87%
    11:00 +17°C° 0.4 mm 2 mps 682 mmHg 85%
    12:00 +18°C° 0.8 mm 2 mps 682 mmHg 85%
    13:00 +18°C° 0.8 mm 3 mps 681 mmHg 85%
    14:00 +18°C° 0.8 mm 3 mps 681 mmHg 85%
    15:00 +19°C° 0.6 mm 3 mps 681 mmHg 83%
    16:00 +19°C° 0.6 mm 3 mps 681 mmHg 82%
    17:00 +19°C° 0.6 mm 3 mps 681 mmHg 81%
    18:00 +18°C° 0.3 mm 2 mps 681 mmHg 85%
    19:00 +17°C° 0.3 mm 2 mps 681 mmHg 88%
    20:00 +15°C° 0.3 mm 2 mps 681 mmHg 92%
    21:00 +15°C° 0 mm 2 mps 680 mmHg 93%
    22:00 +14°C° 0 mm 2 mps 680 mmHg 94%
    23:00 +13°C° 0 mm 2 mps 680 mmHg 96%

    Tomorrow, 18 July, Wednesday

    Time Temperature Precipitation Wind Pressure Humidity
    00:00 +13°C° 0 mm 1 mps 680 mmHg 96%
    01:00 +13°C° 0 mm 1 mps 680 mmHg 96%
    02:00 +13°C° 0 mm 1 mps 680 mmHg 96%
    03:00 +13°C° 0.1 mm 1 mps 680 mmHg 96%
    04:00 +14°C° 0.1 mm 1 mps 680 mmHg 96%
    05:00 +14°C° 0.1 mm 1 mps 680 mmHg 96%
    06:00 +14°C° 0.1 mm 1 mps 681 mmHg 96%
    07:00 +14°C° 0.1 mm 1 mps 681 mmHg 95%
    08:00 +15°C° 0.1 mm 1 mps 681 mmHg 95%
    09:00 +16°C° 0.1 mm 1 mps 681 mmHg 93%
    10:00 +16°C° 0.1 mm 1 mps 681 mmHg 91%
    11:00 +17°C° 0.1 mm 2 mps 681 mmHg 89%
    12:00 +18°C° 0.6 mm 2 mps 681 mmHg 87%
    13:00 +18°C° 0.6 mm 2 mps 681 mmHg 86%
    14:00 +19°C° 0.6 mm 2 mps 681 mmHg 84%
    15:00 +19°C° 0.5 mm 2 mps 681 mmHg 84%
    16:00 +19°C° 0.5 mm 2 mps 681 mmHg 83%
    17:00 +19°C° 0.5 mm 2 mps 681 mmHg 83%
    18:00 +18°C° 0.3 mm 2 mps 681 mmHg 86%
    19:00 +18°C° 0.3 mm 1 mps 681 mmHg 89%
    20:00 +16°C° 0.3 mm 1 mps 681 mmHg 93%
    21:00 +16°C° 0 mm 1 mps 681 mmHg 94%
    22:00 +15°C° 0 mm 1 mps 681 mmHg 95%
    23:00 +15°C° 0 mm 1 mps 681 mmHg 95%

    Day after tomorrow, 19 July, Thursday

    Time Temperature Precipitation Wind Pressure Humidity
    00:00 +14°C° 0 mm 1 mps 681 mmHg 96%
    01:00 +14°C° 0 mm 1 mps 681 mmHg 96%
    02:00 +14°C° 0 mm 1 mps 681 mmHg 97%
    03:00 +14°C° 0 mm 1 mps 681 mmHg 97%
    04:00 +14°C° 0 mm 1 mps 682 mmHg 97%
    05:00 +15°C° 0 mm 1 mps 682 mmHg 97%
    06:00 +15°C° 0.1 mm 1 mps 682 mmHg 96%
    07:00 +16°C° 0.1 mm 1 mps 682 mmHg 96%
    08:00 +17°C° 0.1 mm 2 mps 683 mmHg 95%
    09:00 +17°C° 0.1 mm 2 mps 683 mmHg 93%
    10:00 +18°C° 0.1 mm 2 mps 683 mmHg 92%
    11:00 +19°C° 0.1 mm 2 mps 684 mmHg 90%
    12:00 +20°C° 0.3 mm 3 mps 684 mmHg 85%
    13:00 +21°C° 0.3 mm 3 mps 684 mmHg 79%
    14:00 +22°C° 0.3 mm 3 mps 684 mmHg 74%
    15:00 +22°C° 0.3 mm 4 mps 684 mmHg 75%
    16:00 +21°C° 0.3 mm 4 mps 684 mmHg 76%
    17:00 +21°C° 0.3 mm 4 mps 684 mmHg 76%
    18:00 +20°C° 0.1 mm 3 mps 684 mmHg 81%
    19:00 +19°C° 0.1 mm 3 mps 684 mmHg 85%
    20:00 +17°C° 0.1 mm 3 mps 684 mmHg 90%
    21:00 +17°C° 0 mm 2 mps 684 mmHg 92%
    22:00 +16°C° 0 mm 2 mps 685 mmHg 93%
    23:00 +15°C° 0 mm 2 mps 685 mmHg 95%

    20 July, Friday

    Time Temperature Precipitation Wind Pressure Humidity
    00:00 +15°C° 0 mm 2 mps 685 mmHg 96%
    01:00 +14°C° 0 mm 2 mps 685 mmHg 96%
    02:00 +14°C° 0 mm 2 mps 685 mmHg 97%
    03:00 +14°C° 0 mm 2 mps 685 mmHg 97%
    04:00 +14°C° 0 mm 2 mps 685 mmHg 97%
    05:00 +14°C° 0 mm 2 mps 685 mmHg 97%
    06:00 +15°C° 0 mm 2 mps 685 mmHg 95%
    07:00 +16°C° 0 mm 3 mps 685 mmHg 93%
    08:00 +16°C° 0 mm 3 mps 686 mmHg 91%
    09:00 +17°C° 0 mm 3 mps 686 mmHg 86%
    10:00 +18°C° 0 mm 3 mps 686 mmHg 81%
    11:00 +19°C° 0 mm 3 mps 686 mmHg 76%
    12:00 +20°C° 0 mm 3 mps 686 mmHg 70%
    13:00 +21°C° 0 mm 4 mps 686 mmHg 63%
    14:00 +23°C° 0 mm 4 mps 686 mmHg 56%
    15:00 +22°C° 0 mm 4 mps 686 mmHg 58%
    16:00 +22°C° 0 mm 4 mps 686 mmHg 59%
    17:00 +22°C° 0 mm 4 mps 686 mmHg 60%
    18:00 +20°C° 0.1 mm 3 mps 686 mmHg 69%
    19:00 +18°C° 0.1 mm 3 mps 686 mmHg 78%
    20:00 +17°C° 0.1 mm 2 mps 686 mmHg 87%
    21:00 +16°C° 0 mm 2 mps 685 mmHg 90%
    22:00 +15°C° 0 mm 2 mps 685 mmHg 92%
    23:00 +14°C° 0 mm 2 mps 685 mmHg 95%

    21 July, Saturday

    Time Temperature Precipitation Wind Pressure Humidity
    00:00 +14°C° 0 mm 2 mps 685 mmHg 95%
    01:00 +14°C° 0 mm 2 mps 685 mmHg 96%
    02:00 +14°C° 0 mm 2 mps 685 mmHg 96%
    03:00 +14°C° 0 mm 1 mps 685 mmHg 96%
    04:00 +13°C° 0 mm 1 mps 685 mmHg 96%
    05:00 +13°C° 0 mm 1 mps 685 mmHg 96%
    06:00 +14°C° 0 mm 1 mps 685 mmHg 92%
    07:00 +16°C° 0 mm 1 mps 685 mmHg 88%
    08:00 +17°C° 0 mm 2 mps 686 mmHg 84%
    09:00 +18°C° 0.1 mm 2 mps 686 mmHg 79%
    10:00 +20°C° 0.1 mm 2 mps 686 mmHg 73%
    11:00 +21°C° 0.1 mm 2 mps 686 mmHg 67%
    12:00 +21°C° 0.2 mm 2 mps 686 mmHg 65%
    13:00 +23°C° 0.2 mm 2 mps 686 mmHg 63%
    14:00 +24°C° 0.2 mm 2 mps 686 mmHg 62%
    15:00 +23°C° 0.4 mm 2 mps 686 mmHg 65%
    16:00 +23°C° 0.4 mm 2 mps 685 mmHg 69%
    17:00 +23°C° 0.4 mm 2 mps 685 mmHg 73%
    18:00 +20°C° 0.2 mm 2 mps 685 mmHg 78%
    19:00 +20°C° 0.2 mm 1 mps 685 mmHg 83%
    20:00 +18°C° 0.2 mm 1 mps 684 mmHg 89%
    21:00 +16°C° 0 mm 1 mps 684 mmHg 90%
    22:00 +16°C° 0 mm 1 mps 684 mmHg 92%
    23:00 +15°C° 0 mm 1 mps 684 mmHg 93%

    22 July, Sunday

    Time Temperature Precipitation Wind Pressure Humidity
    00:00 +14°C° 0 mm 1 mps 684 mmHg 93%
    01:00 +14°C° 0 mm 1 mps 684 mmHg 93%
    02:00 +14°C° 0 mm 1 mps 684 mmHg 94%
    03:00 +13°C° 0 mm 1 mps 684 mmHg 94%
    04:00 +13°C° 0 mm 1 mps 684 mmHg 93%
    05:00 +13°C° 0 mm 1 mps 683 mmHg 93%
    06:00 +15°C° 0 mm 1 mps 684 mmHg 89%
    07:00 +16°C° 0 mm 1 mps 684 mmHg 85%
    08:00 +19°C° 0 mm 1 mps 684 mmHg 81%
    09:00 +20°C° 0.1 mm 1 mps 685 mmHg 75%
    10:00 +21°C° 0.1 mm 2 mps 685 mmHg 68%
    11:00 +23°C° 0.1 mm 2 mps 685 mmHg 62%
    12:00 +23°C° 0.3 mm 2 mps 685 mmHg 63%
    13:00 +23°C° 0.3 mm 2 mps 685 mmHg 63%
    14:00 +24°C° 0.3 mm 3 mps 685 mmHg 64%
    15:00 +22°C° 0.4 mm 3 mps 685 mmHg 67%
    16:00 +22°C° 0.4 mm 3 mps 684 mmHg 70%
    17:00 +22°C° 0.4 mm 3 mps 684 mmHg 73%
    18:00 +20°C° 0.3 mm 2 mps 684 mmHg 78%
    19:00 +19°C° 0.3 mm 2 mps 684 mmHg 84%
    20:00 +17°C° 0.3 mm 2 mps 684 mmHg 89%
    21:00 +16°C° 0 mm 2 mps 684 mmHg 90%
    22:00 +15°C° 0 mm 2 mps 684 mmHg 91%
    23:00 +15°C° 0 mm 2 mps 685 mmHg 92%
    Show more